Weather History for KGKJ - January, 2013

Change the Weather History Date:

Thursday, January 24, 2013

  Actual Average (KERI) Record (KERI)
Temperature  
Mean Temperature 12 °F 27 °F  
Max Temperature 16 °F 33 °F 65 °F (1950)
Min Temperature 7 °F 20 °F -15 °F (1963)
Degree Days  
Heating Degree Days 54 38  
Month to date heating degree days 904  
Since 1 July heating degree days 3072  
Cooling Degree Days 0 0  
Month to date cooling degree days 0  
Year to date cooling degree days 0  
Moisture  
Dew Point 6 °F    
Average Humidity 80    
Maximum Humidity 92    
Minimum Humidity 47    
Precipitation  
Precipitation 0.00 in 0.09 in - ()
Month to date precipitation 2.37  
Year to date precipitation 2.37  
Snow  
Snow 0.00 in 0.80 in - ()
Month to date snowfall 23.7  
Since 1 July snowfall 59.9  
Snow Depth -    
Sea Level Pressure  
Sea Level Pressure 30.27 in    
Wind  
Wind Speed 4 mph (West)    
Max Wind Speed 12 mph    
Max Gust Speed 22 mph    
Visibility 5 miles    
Events Fog , Snow    
T = Trace of Precipitation, MM = Missing Value Source: NWS Daily Summary

Daily Weather History Graph

Daily Weather History Graph

Search for Another Location

Airport or City:

Trip Planner

Search our weather history database for the weather conditions in past years. The results will help you decide how hot, cold, wet, or windy it might be!

Date:

Astronomy

Jan. 24, 2013 Rise Set
Actual Time 7:39 AM EST 5:26 PM EST
Civil Twilight 7:09 AM EST 5:56 PM EST
Nautical Twilight 6:36 AM EST 6:30 PM EST
Astronomical Twilight 6:03 AM EST 7:03 PM EST
Moon 3:27 PM EST (1/24) 5:36 AM EST (1/24)
Length of Visible Light 10h 47m
Length of Day
9h 47m
Waxing Gibbous, 94% of the Moon is Illuminated
Jan 24
Waxing Gibbous
Jan 26
Full
Feb 3
Last Quarter
Feb 10
New
Feb 17
First Quarter

Hourly Weather History & Observations

Time (EST) Temp. Windchill Dew Point Humidity Pressure Visibility Wind Dir Wind Speed Gust Speed Precip Events Conditions
12:53 AM 9.0 °F -2.2 °F 5.0 °F 84% 30.07 in 10.0 mi SSW 6.9 mph - N/A   Overcast
1:45 AM 8.6 °F -1.3 °F 5.0 °F 85% 29.99 in 2.0 mi SW 5.8 mph - 0.00 in Snow Light Snow
1:53 AM 9.0 °F -0.9 °F 5.0 °F 84% 30.08 in 2.0 mi SSW 5.8 mph - 0.00 in Snow Light Snow
2:29 AM 8.6 °F 2.0 °F 6.8 °F 92% 30.00 in 1.8 mi SW 3.5 mph - 0.00 in Snow Light Snow
2:53 AM 10.0 °F 1.8 °F 6.1 °F 84% 30.10 in 1.8 mi WSW 4.6 mph - 0.00 in Snow Light Snow
3:00 AM 10.4 °F 0.8 °F 6.8 °F 85% 30.01 in 2.0 mi WSW 5.8 mph - 0.00 in Snow Light Snow
3:10 AM 10.4 °F 0.8 °F 6.8 °F 85% 30.02 in 1.8 mi West 5.8 mph - 0.00 in Snow Light Snow
3:24 AM 10.4 °F 0.8 °F 6.8 °F 85% 30.02 in 1.8 mi West 5.8 mph - 0.00 in Snow Light Snow
3:27 AM 10.4 °F 0.8 °F 6.8 °F 85% 30.02 in 2.0 mi West 5.8 mph - 0.00 in Snow Light Snow
3:43 AM 10.4 °F 0.8 °F 6.8 °F 85% 30.03 in 4.0 mi WNW 5.8 mph - 0.00 in Snow Light Snow
3:53 AM 10.9 °F 2.9 °F 7.0 °F 84% 30.12 in 2.5 mi North 4.6 mph - 0.00 in Snow Light Snow
4:16 AM 10.4 °F - 6.8 °F 85% 30.05 in 2.5 mi Calm Calm - 0.00 in Snow Light Snow
4:27 AM 10.4 °F 4.0 °F 6.8 °F 85% 30.06 in 1.5 mi North 3.5 mph - 0.00 in Snow Light Snow
4:53 AM 10.9 °F 4.7 °F 7.0 °F 84% 30.17 in 0.8 mi North 3.5 mph - 0.00 in Snow Light Snow
4:59 AM 10.4 °F - 6.8 °F 85% 30.08 in 1.0 mi Calm Calm - 0.00 in Snow Light Snow
5:15 AM 10.4 °F - 6.8 °F 85% 30.09 in 2.0 mi Calm Calm - 0.00 in Snow Light Snow
5:22 AM 10.4 °F - 6.8 °F 85% 30.10 in 1.0 mi Calm Calm - 0.00 in Snow Light Snow
5:30 AM 10.4 °F - 6.8 °F 85% 30.10 in 0.8 mi Calm Calm - 0.00 in Snow Light Snow
5:44 AM 10.4 °F - 8.6 °F 92% 30.12 in 0.5 mi Calm Calm - 0.00 in Fog , Snow Snow
5:53 AM 10.9 °F - 8.1 °F 88% 30.21 in 0.5 mi Calm Calm - 0.00 in Fog , Snow Snow
6:02 AM 10.4 °F - 8.6 °F 92% 30.13 in 0.2 mi Calm Calm - 0.00 in Fog , Snow Heavy Snow
6:09 AM 12.2 °F 6.1 °F 8.6 °F 85% 30.13 in 0.8 mi West 3.5 mph - 0.00 in Snow Light Snow
6:18 AM 12.2 °F - 8.6 °F 85% 30.14 in 1.0 mi Calm Calm - 0.00 in Snow Light Snow
6:31 AM 12.2 °F - 8.6 °F 85% 30.15 in 0.5 mi Calm Calm - 0.00 in Fog , Snow Snow
6:53 AM 12.0 °F 5.9 °F 8.1 °F 84% 30.26 in 0.2 mi West 3.5 mph - 0.00 in Fog , Snow Heavy Snow
7:00 AM 12.2 °F 6.1 °F 8.6 °F 85% 30.17 in 0.5 mi West 3.5 mph - 0.00 in Fog , Snow Snow
7:27 AM 12.2 °F 6.1 °F 8.6 °F 85% 30.19 in 1.0 mi WNW 3.5 mph - 0.00 in Snow Light Snow
7:33 AM 12.2 °F 6.1 °F 8.6 °F 85% 30.20 in 3.0 mi WNW 3.5 mph - 0.00 in Snow Light Snow
7:53 AM 10.0 °F - 6.1 °F 84% 30.30 in 8.0 mi Calm Calm - 0.00 in   Overcast
8:24 AM 10.4 °F - 6.8 °F 85% 30.24 in 10.0 mi Calm Calm - 0.00 in   Scattered Clouds
8:37 AM 10.4 °F - 6.8 °F 85% 30.25 in 9.0 mi Calm Calm - 0.00 in   Mostly Cloudy
8:53 AM 10.9 °F - 8.1 °F 88% 30.35 in 5.0 mi Calm Calm - 0.00 in Snow Light Snow
9:23 AM 12.2 °F 6.1 °F 8.6 °F 85% 30.28 in 2.5 mi NW 3.5 mph - 0.00 in Snow Light Snow
9:32 AM 12.2 °F - 8.6 °F 85% 30.29 in 9.0 mi Calm Calm - 0.00 in   Overcast
9:53 AM 15.1 °F 6.4 °F 9.0 °F 77% 30.39 in 9.0 mi NNW 5.8 mph - 0.00 in   Mostly Cloudy
10:05 AM 15.8 °F 5.1 °F 8.6 °F 73% 30.32 in 10.0 mi NNW 8.1 mph - N/A   Scattered Clouds
10:53 AM 16.0 °F 3.6 °F 3.0 °F 57% 30.44 in 10.0 mi North 10.4 mph 21.9 mph N/A   Partly Cloudy
11:53 AM 16.0 °F 4.4 °F 3.0 °F 57% 30.47 in 10.0 mi NNW 9.2 mph - N/A   Scattered Clouds
12:53 PM 16.0 °F 5.3 °F 1.0 °F 52% 30.48 in 10.0 mi NNW 8.1 mph 19.6 mph N/A   Scattered Clouds
1:53 PM 15.1 °F 1.8 °F -2.0 °F 47% 30.48 in 10.0 mi NNW 11.5 mph 19.6 mph N/A   Clear
2:53 PM 16.0 °F 4.4 °F -0.9 °F 47% 30.51 in 10.0 mi NW 9.2 mph - N/A   Mostly Cloudy
3:53 PM 14.0 °F 1.2 °F -2.0 °F 49% 30.52 in 10.0 mi NW 10.4 mph - N/A   Clear
4:53 PM 12.0 °F 2.7 °F 1.0 °F 61% 30.54 in 10.0 mi NNW 5.8 mph - N/A   Mostly Cloudy
5:15 PM 12.2 °F - 1.4 °F 62% 30.45 in 10.0 mi Calm Calm - N/A   Mostly Cloudy
5:53 PM 10.9 °F 4.7 °F 1.0 °F 64% 30.55 in 10.0 mi WNW 3.5 mph - N/A   Partly Cloudy
6:53 PM 9.0 °F 2.4 °F 3.9 °F 80% 30.56 in 6.0 mi West 3.5 mph - 0.00 in   Haze
7:35 PM 8.6 °F 0.1 °F 5.0 °F 85% 30.47 in 4.0 mi West 4.6 mph - 0.00 in Snow Light Snow
7:53 PM 9.0 °F 0.6 °F 5.0 °F 84% 30.56 in 5.0 mi West 4.6 mph - 0.00 in Snow Light Snow
8:01 PM 8.6 °F 0.1 °F 5.0 °F 85% 30.47 in 4.0 mi WSW 4.6 mph - 0.00 in Snow Light Snow
8:15 PM 8.6 °F 2.0 °F 5.0 °F 85% 30.46 in 6.0 mi WSW 3.5 mph - 0.00 in Snow Light Snow
8:33 PM 8.6 °F 2.0 °F 3.2 °F 79% 30.45 in 9.0 mi WSW 3.5 mph - 0.00 in   Mostly Cloudy
8:53 PM 8.1 °F - 3.9 °F 83% 30.54 in 10.0 mi Calm Calm - 0.00 in   Partly Cloudy
9:53 PM 9.0 °F - 3.9 °F 80% 30.52 in 10.0 mi Calm Calm - N/A   Scattered Clouds
10:53 PM 7.0 °F 0.1 °F 3.0 °F 84% 30.52 in 10.0 mi South 3.5 mph - N/A   Clear
11:53 PM 8.1 °F 1.4 °F 3.9 °F 83% 30.53 in 10.0 mi SSW 3.5 mph - N/A   Mostly Cloudy